Weather History for KRBO - October, 2012

Change the Weather History Date:

Monday, October 1, 2012

  Actual Average (KCRP) Record (KCRP)
Temperature  
Mean Temperature 75 °F 78 °F  
Max Temperature 87 °F 87 °F 96 °F (1989)
Min Temperature 63 °F 69 °F 52 °F (1985)
Degree Days  
Heating Degree Days 0 0  
Month to date heating degree days 0  
Since 1 July heating degree days 0  
Cooling Degree Days 10 13  
Month to date cooling degree days 13  
Year to date cooling degree days 3056  
Growing Degree Days 25 (Base 50)    
Moisture  
Dew Point 60 °F    
Average Humidity 69    
Maximum Humidity 93    
Minimum Humidity 34    
Precipitation  
Precipitation 0.08 in 0.13 in 2.47 in (1958)
Month to date precipitation 0.13  
Year to date precipitation 24.45  
Snow  
Snow 0.00 in - - ()
Month to date snowfall  
Since 1 July snowfall  
Since 1 September snowfall  
Snow Depth -    
Sea Level Pressure  
Sea Level Pressure 29.87 in    
Wind  
Wind Speed 5 mph (NNW)    
Max Wind Speed 21 mph    
Max Gust Speed 31 mph    
Visibility 10 miles    
Events Rain , Thunderstorm    
T = Trace of Precipitation, MM = Missing Value Source: NWS Daily Summary

Daily Weather History Graph

Daily Weather History Graph

Search for Another Location

Airport or City:

Trip Planner

Search our weather history database for the weather conditions in past years. The results will help you decide how hot, cold, wet, or windy it might be!

Date:

Astronomy

Oct. 01, 2012 Rise Set
Actual Time 7:23 AM CDT 7:16 PM CDT
Civil Twilight 7:00 AM CDT 7:39 PM CDT
Nautical Twilight 6:33 AM CDT 8:06 PM CDT
Astronomical Twilight 6:06 AM CDT 8:33 PM CDT
Moon 8:08 PM CDT (10/1) 8:42 AM CDT (10/1)
Length of Visible Light 12h 39m
Length of Day
11h 52m
Full, 98% of the Moon is Illuminated
Oct 1
Full
Oct 8
Last Quarter
Oct 15
New
Oct 21
First Quarter
Oct 29
Full

Hourly Weather History & Observations

Time (CDT) Temp. Heat Index Dew Point Humidity Pressure Visibility Wind Dir Wind Speed Gust Speed Precip Events Conditions
12:15 AM 73.4 °F - 63.5 °F 71% 29.85 in 10.0 mi NNE 8.1 mph - N/A   Clear
12:35 AM 72.3 °F - 63.7 °F 74% 29.84 in 10.0 mi North 5.8 mph - N/A   Clear
12:55 AM 71.1 °F - 63.7 °F 77% 29.84 in 10.0 mi NNE 3.5 mph - N/A   Clear
1:15 AM 71.2 °F - 63.9 °F 77% 29.84 in 10.0 mi NNE 4.6 mph - N/A   Clear
1:35 AM 70.9 °F - 63.7 °F 78% 29.85 in 10.0 mi NNE 6.9 mph - N/A   Clear
1:55 AM 70.9 °F - 63.5 °F 77% 29.85 in 10.0 mi NNE 6.9 mph - N/A   Clear
2:15 AM 70.3 °F - 63.0 °F 77% 29.85 in 10.0 mi NE 8.1 mph - N/A   Clear
2:35 AM 70.2 °F - 62.1 °F 75% 29.85 in 10.0 mi NE 5.8 mph - N/A   Clear
2:55 AM 69.8 °F - 61.2 °F 74% 29.85 in 10.0 mi NNE 4.6 mph - N/A   Clear
3:15 AM 68.9 °F - 61.3 °F 77% 29.86 in 10.0 mi NNE 6.9 mph - N/A   Clear
3:35 AM 68.5 °F - 60.3 °F 75% 29.86 in 10.0 mi NNE 6.9 mph - N/A   Clear
3:55 AM 67.8 °F - 60.1 °F 76% 29.86 in 10.0 mi NNE 4.6 mph - N/A   Clear
4:15 AM 67.1 °F - 60.1 °F 78% 29.86 in 10.0 mi Calm Calm - N/A   Clear
4:35 AM 66.0 °F - 60.6 °F 83% 29.86 in 10.0 mi North 3.5 mph - N/A   Clear
4:55 AM 64.9 °F - 60.8 °F 86% 29.85 in 10.0 mi North 4.6 mph - N/A   Clear
5:15 AM 64.6 °F - 60.4 °F 86% 29.86 in 10.0 mi North 3.5 mph - N/A   Clear
5:35 AM 64.4 °F - 60.3 °F 86% 29.86 in 10.0 mi NNW 3.5 mph - N/A   Clear
5:55 AM 64.2 °F - 60.8 °F 89% 29.87 in 10.0 mi Calm Calm - N/A   Clear
6:15 AM 64.4 °F - 60.8 °F 88% 29.87 in 10.0 mi Calm Calm - N/A   Clear
6:35 AM 63.9 °F - 61.0 °F 90% 29.87 in 10.0 mi Calm Calm - N/A   Clear
6:55 AM 63.9 °F - 61.0 °F 90% 29.87 in 10.0 mi Calm Calm - N/A   Clear
7:15 AM 63.5 °F - 60.8 °F 91% 29.88 in 10.0 mi Calm Calm - N/A   Clear
7:35 AM 63.5 °F - 60.8 °F 91% 29.89 in 10.0 mi Calm Calm - N/A   Clear
7:55 AM 63.9 °F - 61.2 °F 91% 29.89 in 10.0 mi Calm Calm - N/A   Clear
8:15 AM 65.3 °F - 61.7 °F 88% 29.90 in 10.0 mi Calm Calm - N/A   Clear
8:35 AM 67.6 °F - 61.5 °F 81% 29.90 in 10.0 mi Calm Calm - N/A   Clear
8:55 AM 69.1 °F - 59.4 °F 71% 29.91 in 10.0 mi Calm Calm - N/A   Clear
9:15 AM 70.2 °F - 58.3 °F 66% 29.92 in 10.0 mi Calm Calm - N/A   Clear
9:35 AM 71.2 °F - 56.7 °F 60% 29.92 in 10.0 mi NNW 3.5 mph - N/A   Clear
9:55 AM 72.7 °F - 56.8 °F 57% 29.92 in 10.0 mi NE 3.5 mph - N/A   Clear
10:15 AM 73.9 °F - 54.9 °F 51% 29.92 in 10.0 mi North 4.6 mph - N/A   Clear
10:35 AM 74.7 °F - 54.0 °F 48% 29.93 in 10.0 mi NNE 3.5 mph - N/A   Clear
10:55 AM 75.2 °F - 54.5 °F 48% 29.93 in 10.0 mi North 4.6 mph - N/A   Clear
11:15 AM 76.1 °F - 54.1 °F 46% 29.92 in 10.0 mi Calm Calm - N/A   Clear
11:35 AM 78.3 °F - 54.3 °F 43% 29.92 in 10.0 mi Calm Calm - N/A   Clear
11:55 AM 78.3 °F - 54.5 °F 44% 29.92 in 10.0 mi Calm Calm - N/A   Clear
12:15 PM 79.2 °F - 53.6 °F 41% 29.91 in 10.0 mi NNW 4.6 mph - N/A   Clear
12:35 PM 79.9 °F - 53.1 °F 39% 29.90 in 10.0 mi Calm Calm - N/A   Clear
1:15 PM 81.1 °F 80.8 °F 54.9 °F 40% 29.88 in 10.0 mi Calm Calm - N/A   Clear
1:35 PM 82.9 °F 82.1 °F 55.9 °F 39% 29.87 in 10.0 mi West 5.8 mph - N/A   Clear
1:55 PM 83.5 °F 82.6 °F 55.9 °F 39% 29.86 in 10.0 mi NNW 3.5 mph - N/A   Clear
2:15 PM 83.1 °F 82.4 °F 56.3 °F 40% 29.85 in 10.0 mi WNW 8.1 mph - N/A   Clear
2:35 PM 83.8 °F 83.0 °F 56.3 °F 39% 29.84 in 10.0 mi WSW 3.5 mph - N/A   Clear
2:55 PM 84.7 °F 83.7 °F 56.3 °F 38% 29.84 in 10.0 mi West 8.1 mph - N/A   Clear
3:15 PM 85.6 °F 84.5 °F 56.5 °F 37% 29.83 in 10.0 mi West 6.9 mph - N/A   Clear
3:35 PM 85.3 °F 84.1 °F 56.1 °F 37% 29.82 in 10.0 mi Calm Calm - N/A   Clear
3:55 PM 86.9 °F 85.6 °F 56.7 °F 36% 29.82 in 10.0 mi WNW 8.1 mph - N/A   Clear
4:15 PM 86.9 °F 85.5 °F 55.9 °F 35% 29.82 in 10.0 mi West 6.9 mph - N/A   Scattered Clouds
4:35 PM 87.4 °F 85.9 °F 55.9 °F 34% 29.82 in 10.0 mi NW 9.2 mph - N/A   Mostly Cloudy
4:55 PM 86.2 °F 84.9 °F 56.7 °F 36% 29.83 in 10.0 mi NNW 20.7 mph 31.1 mph N/A   Mostly Cloudy
5:15 PM 72.3 °F - 67.8 °F 86% 29.85 in 4.0 mi North 12.7 mph 25.3 mph 0.08 in Rain , Thunderstorm Thunderstorms and Rain
5:35 PM 73.4 °F - 65.8 °F 77% 29.84 in 10.0 mi North 17.3 mph 23.0 mph 0.08 in Thunderstorm Mostly Cloudy
5:55 PM 73.0 °F - 65.5 °F 77% 29.85 in 10.0 mi North 12.7 mph - N/A   Mostly Cloudy
6:15 PM 73.9 °F - 66.2 °F 77% 29.84 in 10.0 mi North 12.7 mph - N/A   Mostly Cloudy
6:35 PM 72.5 °F - 64.6 °F 76% 29.85 in 10.0 mi NNE 10.4 mph - N/A   Scattered Clouds
6:55 PM 72.7 °F - 63.5 °F 73% 29.85 in 10.0 mi NNE 6.9 mph - N/A   Scattered Clouds
7:15 PM 72.5 °F - 63.0 °F 72% 29.84 in 10.0 mi NNE 4.6 mph - N/A   Scattered Clouds
7:55 PM 70.5 °F - 64.4 °F 81% 29.85 in 10.0 mi NNW 4.6 mph - N/A   Clear
8:15 PM 69.8 °F - 64.4 °F 83% 29.85 in 10.0 mi Calm Calm - N/A   Clear
8:35 PM 70.0 °F - 64.6 °F 83% 29.85 in 10.0 mi Calm Calm - N/A   Clear
8:55 PM 69.8 °F - 65.3 °F 86% 29.86 in 10.0 mi Calm Calm - N/A   Clear
9:15 PM 69.4 °F - 64.6 °F 84% 29.87 in 10.0 mi NNW 5.8 mph - N/A   Clear
9:35 PM 69.8 °F - 64.8 °F 84% 29.89 in 10.0 mi NNW 4.6 mph - N/A   Clear
9:55 PM 69.1 °F - 64.9 °F 87% 29.89 in 10.0 mi WNW 4.6 mph - N/A   Clear
10:15 PM 69.4 °F - 64.8 °F 85% 29.90 in 10.0 mi Calm Calm - N/A   Clear
10:35 PM 67.8 °F - 65.1 °F 91% 29.91 in 10.0 mi WSW 4.6 mph - N/A   Clear
11:15 PM 67.3 °F - 64.9 °F 92% 29.91 in 10.0 mi West 4.6 mph - N/A   Clear
11:35 PM 66.7 °F - 64.6 °F 93% 29.91 in 10.0 mi West 4.6 mph - N/A   Clear
11:55 PM 66.7 °F - 64.4 °F 92% 29.91 in 10.0 mi West 4.6 mph - N/A   Clear